Showing default

COSMOS 2432 (GLONASS), 32276

Orbit data source: Space-Track

COSMOS 2432 (GLONASS), 32276 is a Commonwealth of Independent States-origin payload satellite in MEO that was launched on Fri, 26 Oct 2007 UTC via a PROTON-K/DM-2 launch vehicle from the Tyuratam Missile And Space Complex (TTMTR). Payload-class satellites include a variety of spacecraft equipped with specific instruments for various scientific and technological missions. These include communications satellites like Starlink; space stations such as the ISS; scientific satellites like the Hubble; Earth observation satellites from companies like Planet Labs, Umbra, and HawkEye 360; GPS; miniature CubeSats for education and research; and military/defense satellites.

Loading next visibility...
Identifier
32276, 2007-052B
Orbit
MEO
Country
Flag of CISCIS
Related business
Manufacturer
Resehetnev ISS
Mission
Operational Defense Navigation
Bus & Motor
URAGAN, Unknown motor
Mass
1,450 kg wet, ~1,200 kg dry
Launch date (UTC)
2007-10-26 (18 years ago)
Launch vehicle
PROTON-K/DM-2
Launch site
Tyuratam Missile And Space Complex (TTMTR)
Object type
Payload
Rocket body
Debris
Shape & HBR
Cyl + 1 Ant + 2 Pan, 3.9 m
Radar Cross Section
8.467 m², Large (>1 m²)

Expand to show TLE details & history
Last TLE update: 14 hours ago

TLE from 14 hours ago
0 COSMOS 2432 (GLONASS)
1 32276U 07052B   25258.47485545 -.00000061  00000-0  00000-0 0  9996
2 32276  65.7437 325.2938 0008908 308.9145  53.5258  2.13103086139231
Epoch: 2025-09-15T11:23Z
TLE epoch observation values (Epoch: 2025-09-15T11:23:47.51Z)
Latitude
2.2462°
Longitude
160.68624°
Altitude
19,116.602 km
Speed
3.955 km/s
True Right ascension
21h 45m 15s
True Declination
2° 14' 33"
Sunlit
Object was in daylight at epoch
Visualization orbit readout
Latitude
Unknown
Longitude
Unknown
Altitude
Unknown
Speed
Unknown
Apparent Right ascension
Unknown
Apparent Declination
Unknown
Sunlit
N/A
Visualization observer readout
Local Sidereal Time
17:55:46
Azimuth
Unknown
Elevation
Unknown
Doppler factor
Unknown
Orbital elements
Apogee altitude
19,152.112 km
Perigee altitude
19,106.668 km
Semi-major axis
25,507.527 km
Eccentricity
0.00089
Inclination
65.7437°
RAAN
325.2938°
Arg. of periapsis
308.9145°
True anomaly
53.60794°
Mean anomaly
53.5258°
Eccentric anomaly
53.56686°
Mean motion
0.53277 °/min
Orbital period
675.71 mins
BSTAR
0
Loading maneuver chart data...
Computing Atmospheric mass density...
Loading historical data...
Loading historical data...
Loading historical data...
Loading historical data...
Loading historical data...
Loading historical data...
Loading historical data...

Documentation

Showing up to 5 results
|